Regional Weather Roundup
Issued by NWS Northern Indiana

Home | Current Version | Previous Version | Text Only | Print | Product List | Glossary Off
Versions: 1 2 3 4 5 6 7 8 9 10 11 12 13 14 15 16 17 18 19 20 21 22 23 24 25 26 27 28 29 30 31 32 33 34 35 36 37 38 39 40 41 42 43 44 45 46 47 48 49 50

000
ASUS43 KIWX 031400
RWRIWX

KIWX WEATHER ROUNDUP
NATIONAL WEATHER SERVICE NORTHERN INDIANA
1000 AM EDT FRI JUL 03 2015

NOTE: "FAIR" INDICATES FEW OR NO CLOUDS BELOW 12,000 FEET WITH NO
SIGNIFICANT WEATHER AND/OR OBSTRUCTIONS TO VISIBILITY.

* THESE STATIONS ARE NOT UNDER NWS QUALITY CONTROL. THEY ALSO MAY NOT
  REPORT WEATHER SUCH AS PRECIPITATION OR FOG.

INZ001>027-031500-
NORTHERN INDIANA

CITY           SKY/WX    TMP DP  RH WIND       PRES   REMARKS
SOUTH BEND     MOSUNNY   67  57  70 E6        29.99F
ELKHART*       SUNNY     66  57  72 SE7       30.00S
GOSHEN         MOSUNNY   66  56  70 E10       29.98F
ANGOLA*          N/A     64  54  68 E7        29.99F
FORT WAYNE     PTSUNNY   65  57  75 E12       29.98F
PERU/GRISSOM   DRIZZLE   64  57  77 NE8       29.94F

$$
INZ028>050-031500-
CENTRAL INDIANA

CITY           SKY/WX    TMP DP  RH WIND       PRES   REMARKS
LAFAYETTE      CLOUDY    65  56  72 NE10      29.94S
KOKOMO*        CLOUDY    63  55  77 E9        29.94F
MUNCIE*        CLOUDY    64  57  78 NE7       29.95S
INDIANAPOLIS   CLOUDY    67  59  75 N8        29.90S

$$
MIZ043>046-050>051-056>058-064>065-071>073-077>080-031500-
SOUTHWEST LOWER MICHIGAN

CITY           SKY/WX    TMP DP  RH WIND       PRES   REMARKS
BATTLE CREEK   PTSUNNY   66  54  65 NE5       30.01S
BENTON HARBOR  MOSUNNY   66  58  75 SE5       29.99S
COLDWATER*     PTSUNNY   64  53  69 E6        30.00F
HILLSDALE*       N/A     64  53  67 E3        30.00F HAZE
HOLLAND        PTSUNNY   66  56  70 S5        30.01S
GRAND RAPIDS   PTSUNNY   63  53  70 CALM      30.01S
KALAMAZOO      PTSUNNY   65  55  70 VRB3      30.01S
STURGIS*       MOSUNNY   64  57  77 E6        29.99S
THREE RIVERS*  FAIR      63  56  78 CALM      30.01S

$$
OHZ001>008-015>018-024>025-031500-
NORTHWEST OHIO

CITY           SKY/WX    TMP DP  RH WIND       PRES   REMARKS
DEFIANCE       PTSUNNY   67  58  72 E7        29.98F
FINDLAY        PTSUNNY   67  55  65 NE9       29.96F
TOLEDO EXPRESS MOSUNNY   68  57  68 VRB7      29.98F
TOLEDO METCALF MOSUNNY   68  55  63 E9        29.99F
LIMA           PTSUNNY   67  56  67 E8        29.96F

$$
AND FOR LAKE MICHIGAN COASTAL AND OPEN LAKE BUOY OBSERVATIONS

STATION/POSITION TEMP    WIND        PRES    VSBY  WAVE
                 AIR SEA DIR/SP/G                  HT/PER
                 (F)     (DEG/KT/KT) (MB)    (MI)  (FT/S)
CALUMET HARBOR    63      40/  4/  5   N/A
MICHIGAN CITY     64     100/  6/  8   N/A
BURNS HARBOR      66     100/  8/ 10 1015.6S
SAINT JOSEPH      63      CALM  /  3   N/A
4 MI NW BRIDGMAN  61 62                N/A           1/ 4
MICHIGAN CITY     62 63   90/  4/  6   N/A           1/ 4

$$
&&


USA.gov is the U.S. government's official web portal to all federal, state and local government web resources and services.